Total_Precipitation_Accumulation
0.04 0.03 0.02 0.02 0.01 0.01 0.03 0.07 0.11 0.07 0.03 0.02 0.03 0.03 0.04 0.04 0.03 0.05 0.04 0.04 0.05 0.08 0.11 0.12 0.12 0.15 0.18 0.22 0.29 0.38 0.47 0.54 0.61 0.67 0.74 0.80 0.85 0.93
0.03 0.03 0.03 0.03 0.03 0.02 0.03 0.04 0.08 0.09 0.05 0.01 0.02 0.03 0.06 0.06 0.05 0.06 0.07 0.09 0.11 0.12 0.13 0.15 0.18 0.22 0.26 0.28 0.30 0.35 0.44 0.53 0.60 0.65 0.72 0.80 0.86 0.94
0.04 0.04 0.04 0.04 0.04 0.04 0.03 0.03 0.03 0.05 0.06 0.01 0.00 0.01 0.04 0.05 0.05 0.06 0.06 0.06 0.07 0.09 0.13 0.15 0.18 0.23 0.28 0.31 0.33 0.36 0.42 0.51 0.57 0.63 0.71 0.79 0.83 0.85
0.05 0.05 0.05 0.05 0.05 0.05 0.04 0.03 0.03 0.03 0.06 0.06 0.01 0.00 0.01 0.03 0.04 0.04 0.05 0.07 0.06 0.07 0.11 0.14 0.17 0.22 0.27 0.29 0.32 0.35 0.39 0.44 0.48 0.53 0.57 0.62 0.69 0.76
0.06 0.07 0.07 0.06 0.06 0.05 0.03 0.02 0.02 0.03 0.06 0.10 0.05 0.02 0.02 0.02 0.04 0.03 0.04 0.05 0.06 0.07 0.09 0.11 0.16 0.21 0.26 0.29 0.30 0.31 0.31 0.34 0.38 0.43 0.48 0.54 0.60 0.67
0.07 0.07 0.06 0.05 0.04 0.03 0.02 0.02 0.04 0.05 0.07 0.10 0.12 0.09 0.06 0.03 0.06 0.06 0.05 0.05 0.05 0.05 0.06 0.07 0.09 0.12 0.14 0.17 0.20 0.22 0.24 0.28 0.36 0.45 0.52 0.57 0.60 0.63
0.09 0.07 0.05 0.03 0.02 0.02 0.04 0.05 0.06 0.10 0.16 0.22 0.20 0.14 0.09 0.08 0.07 0.07 0.09 0.07 0.05 0.04 0.04 0.03 0.04 0.05 0.06 0.09 0.15 0.20 0.26 0.35 0.47 0.61 0.73 0.81 0.83 0.81
0.05 0.04 0.02 0.01 0.01 0.02 0.04 0.07 0.13 0.21 0.29 0.31 0.26 0.17 0.08 0.05 0.07 0.12 0.17 0.21 0.14 0.04 0.06 0.04 0.03 0.04 0.07 0.12 0.19 0.26 0.33 0.42 0.51 0.61 0.71 0.75 0.78 0.84
0.03 0.02 0.01 0.01 0.01 0.01 0.02 0.08 0.14 0.19 0.22 0.22 0.17 0.10 0.10 0.12 0.22 0.32 0.29 0.27 0.17 0.04 0.06 0.07 0.04 0.06 0.08 0.14 0.25 0.29 0.36 0.45 0.52 0.58 0.64 0.66 0.67 0.70
0.01 0.01 0.01 0.01 0.02 0.05 0.12 0.17 0.11 0.07 0.06 0.06 0.09 0.13 0.16 0.16 0.22 0.32 0.29 0.21 0.10 0.04 0.07 0.14 0.10 0.10 0.09 0.13 0.23 0.25 0.29 0.38 0.47 0.53 0.54 0.54 0.54 0.58
0.00 0.01 0.03 0.03 0.05 0.17 0.26 0.22 0.10 0.03 0.02 0.07 0.12 0.12 0.10 0.09 0.11 0.27 0.37 0.39 0.24 0.07 0.06 0.12 0.10 0.11 0.15 0.17 0.22 0.26 0.27 0.33 0.41 0.45 0.44 0.43 0.44 0.50
0.02 0.02 0.03 0.05 0.13 0.25 0.24 0.19 0.10 0.06 0.09 0.06 0.03 0.01 0.01 0.02 0.08 0.23 0.57 0.83 0.57 0.28 0.09 0.22 0.24 0.29 0.41 0.22 0.21 0.24 0.25 0.30 0.35 0.37 0.38 0.39 0.41 0.44
0.06 0.03 0.02 0.10 0.21 0.22 0.15 0.07 0.09 0.16 0.12 0.03 0.01 0.01 0.01 0.02 0.04 0.08 0.30 0.82 1.01 0.58 0.17 0.51 0.61 0.38 0.52 0.34 0.24 0.26 0.34 0.46 0.51 0.50 0.48 0.44 0.42 0.47
0.07 0.04 0.07 0.16 0.15 0.09 0.04 0.04 0.10 0.10 0.03 0.03 0.03 0.03 0.03 0.04 0.04 0.05 0.09 0.24 0.54 0.65 0.37 0.65 0.94 0.61 0.66 0.51 0.35 0.34 0.39 0.61 0.86 0.90 0.84 0.73 0.60 0.53
0.08 0.12 0.14 0.09 0.04 0.01 0.01 0.03 0.04 0.02 0.06 0.12 0.10 0.06 0.04 0.05 0.06 0.08 0.09 0.13 0.21 0.27 0.32 0.44 0.72 0.71 0.77 0.75 0.58 0.47 0.56 0.67 1.02 1.29 1.18 0.95 0.72 0.59
0.13 0.13 0.06 0.01 0.00 0.00 0.01 0.00 0.01 0.02 0.11 0.20 0.17 0.09 0.05 0.06 0.09 0.16 0.27 0.29 0.34 0.28 0.29 0.37 0.50 0.70 0.73 0.59 0.69 0.65 0.75 1.06 1.27 1.46 1.31 1.03 0.81 0.66
0.14 0.04 0.00 0.00 0.01 0.01 0.00 0.00 0.01 0.02 0.06 0.11 0.17 0.16 0.11 0.10 0.12 0.22 0.39 0.49 0.53 0.45 0.39 0.33 0.30 0.35 0.47 0.55 0.59 0.60 0.77 1.04 1.27 1.40 1.17 0.98 0.93 0.83
0.05 0.01 0.01 0.02 0.02 0.02 0.02 0.03 0.02 0.04 0.10 0.19 0.22 0.23 0.25 0.25 0.25 0.27 0.43 0.57 0.58 0.51 0.47 0.39 0.33 0.30 0.30 0.33 0.54 0.77 0.84 1.02 1.14 1.07 0.78 0.74 0.87 0.80
0.01 0.03 0.04 0.03 0.03 0.04 0.06 0.08 0.08 0.06 0.15 0.26 0.32 0.34 0.36 0.33 0.35 0.40 0.47 0.51 0.49 0.43 0.34 0.28 0.33 0.47 0.46 0.35 0.33 0.62 0.92 0.96 0.83 0.75 0.62 0.65 0.87 0.83
0.03 0.05 0.04 0.04 0.05 0.07 0.10 0.12 0.14 0.13 0.18 0.27 0.33 0.36 0.42 0.45 0.44 0.46 0.49 0.51 0.46 0.30 0.16 0.09 0.18 0.45 0.73 0.69 0.57 0.62 0.69 0.79 0.77 0.76 0.64 0.55 0.64 0.63
0.04 0.04 0.03 0.05 0.08 0.11 0.13 0.16 0.19 0.24 0.29 0.38 0.40 0.42 0.48 0.53 0.48 0.44 0.43 0.34 0.26 0.19 0.14 0.09 0.12 0.26 0.44 0.41 0.36 0.42 0.54 0.59 0.65 0.85 0.77 0.58 0.46 0.41
0.04 0.04 0.04 0.05 0.10 0.15 0.17 0.20 0.24 0.26 0.32 0.38 0.42 0.46 0.49 0.54 0.51 0.39 0.29 0.23 0.19 0.18 0.15 0.09 0.06 0.09 0.17 0.28 0.30 0.31 0.35 0.33 0.29 0.29 0.46 0.67 0.87 1.07
0.05 0.06 0.06 0.08 0.13 0.17 0.20 0.21 0.25 0.29 0.37 0.45 0.47 0.45 0.44 0.39 0.30 0.25 0.22 0.21 0.21 0.17 0.13 0.09 0.06 0.06 0.12 0.18 0.23 0.23 0.21 0.19 0.15 0.19 0.35 0.41 0.54 0.79